Location: Kingston, Ontario, Canada
(44.2796°N, 76.5445°W)
Time: 14:12:53
(UTC-04:00)

ISS - Visible Passes

Search period start: 25 March 2019 00:00
Search period end: 04 April 2019 00:00
Orbit: 408 x 411 km, 51.6° (Epoch: 25 March)

Date Brightness Start Highest point End Pass type
(mag) Time Alt. Az. Time Alt. Az. Time Alt. Az.
25 Mar -3.8 19:52:06 10° WSW 19:55:24 87° NNW 19:58:43 10° ENE visible
25 Mar -2.0 21:29:28 10° WNW 21:32:20 26° NNW 21:32:44 25° N visible
26 Mar -2.2 20:38:31 10° W 20:41:33 32° NNW 20:44:20 11° NE visible
26 Mar -0.7 22:16:08 10° NW 22:17:07 15° NW 22:17:07 15° NW visible
27 Mar -1.8 21:25:17 10° WNW 21:27:57 22° N 21:28:36 21° NNE visible
28 Mar -1.8 20:34:21 10° WNW 20:37:07 24° N 20:39:53 10° NE visible
28 Mar -1.0 22:11:34 10° NW 22:12:48 18° NNW 22:12:48 18° NNW visible
29 Mar -1.9 21:20:51 10° NW 21:23:34 23° N 21:24:11 21° NNE visible
30 Mar -1.7 20:30:01 10° NW 20:32:40 22° N 20:35:21 10° NE visible
30 Mar -1.3 22:06:48 10° NW 22:08:17 22° NNW 22:08:17 22° NNW visible
31 Mar -2.4 21:16:08 10° NW 21:19:04 28° NNE 21:19:36 27° NNE visible
01 Apr -2.0 20:25:25 10° NW 20:28:12 24° N 20:30:55 10° ENE visible
01 Apr -1.7 22:01:55 10° NW 22:03:41 28° NW 22:03:41 28° NW visible
02 Apr -3.1 21:11:16 10° NW 21:14:27 43° NNE 21:15:00 39° NE visible
03 Apr -2.5 20:20:36 10° NW 20:23:37 32° NNE 20:26:20 12° E visible
03 Apr -2.1 21:57:06 10° WNW 21:59:06 32° W 21:59:06 32° W visible
